This is the latest recevied weather packets stored in our database for station/object SQ9CIE-4. If no packets are shown the sender has not sent any weather packets the latest 1 day(s).
| Time | Temp. | Humidity | Pressure | Rain* | Wind** | Luminosity | Snow |
|---|---|---|---|---|---|---|---|
| 1777945858 | 13.89° C | 45% | 1012.1 hPa | 0 mm | 0.89 m/s, 55° | 0 W/m² | - |
| 1777945558 | 13.89° C | 44% | 1012.2 hPa | 0 mm | 0.89 m/s, 55° | 0 W/m² | - |
| 1777945258 | 13.89° C | 43% | 1011.9 hPa | 0 mm | 0.89 m/s, 55° | 0 W/m² | - |
| 1777944958 | 13.89° C | 43% | 1012.2 hPa | 0 mm | 0.89 m/s, 55° | 0 W/m² | - |
| 1777944658 | 13.89° C | 43% | 1012.2 hPa | 0 mm | 0.89 m/s, 55° | 0 W/m² | - |
| 1777944358 | 15° C | 43% | 1012 hPa | 0 mm | 0.89 m/s, 55° | 0 W/m² | - |
| 1777944058 | 15° C | 43% | 1012 hPa | 0 mm | 0 m/s | 0 W/m² | - |
| 1777943758 | 13.89° C | 43% | 1012 hPa | 0 mm | 0 m/s | 0 W/m² | - |
| 1777943458 | 13.89° C | 44% | 1012.2 hPa | 0 mm | 0.45 m/s, 55° | 0 W/m² | - |
| 1777943158 | 13.89° C | 45% | 1012.2 hPa | 0 mm | 0.45 m/s, 55° | 0 W/m² | - |
| 1777942858 | 13.89° C | 44% | 1012.1 hPa | 0 mm | 0.45 m/s, 55° | 0 W/m² | - |
| 1777942558 | 13.89° C | 44% | 1012.1 hPa | 0 mm | 0.89 m/s, 55° | 0 W/m² | - |
| 1777942258 | 13.89° C | 45% | 1012.2 hPa | 0 mm | 0.89 m/s, 55° | 0 W/m² | - |
| 1777941958 | 13.89° C | 45% | 1012.1 hPa | 0 mm | 0.89 m/s, 55° | 0 W/m² | - |
| 1777941658 | 15° C | 45% | 1012.1 hPa | 0 mm | 0.89 m/s, 55° | 0 W/m² | - |
| 1777941358 | 15° C | 45% | 1012.3 hPa | 0 mm | 0.89 m/s, 55° | 0 W/m² | - |
| 1777941058 | 13.89° C | 46% | 1012.1 hPa | 0 mm | 1.34 m/s, 55° | 0 W/m² | - |
| 1777940758 | 13.89° C | 46% | 1012.6 hPa | 0 mm | 0.89 m/s, 55° | 0 W/m² | - |
| 1777940458 | 13.89° C | 47% | 1012.4 hPa | 0 mm | 1.34 m/s, 55° | 0 W/m² | - |
| 1777940158 | 13.89° C | 47% | 1012.4 hPa | 0 mm | 0.45 m/s, 290° | 0 W/m² | - |
| 1777939858 | 13.89° C | 47% | 1012.4 hPa | 0 mm | 0.45 m/s, 290° | 0 W/m² | - |
| 1777939558 | 13.89° C | 47% | 1012.6 hPa | 0 mm | 0.89 m/s, 290° | 0 W/m² | - |
| 1777939258 | 15° C | 47% | 1012.3 hPa | 0 mm | 0.45 m/s, 290° | 0 W/m² | - |
| 1777938958 | 15° C | 46% | 1012.6 hPa | 0 mm | 0.45 m/s, 290° | 0 W/m² | - |
| 1777938658 | 15° C | 47% | 1012.7 hPa | 0 mm | 0.89 m/s, 290° | 0 W/m² | - |
* Rain latest hour (hover to see other rain measurements)
** Current wind speed in m/s (hover to see current wind gust speed)